West Coast Vancouver Island South: Past 24 Hour Conditions

 

Bella Bella Airport

08:00 AM PDT 21 October 2014
This table is a summary of hourly weather conditions for the past 24 hours.
Date / Time
(PDT)
Wind(knots) Conditions Visibility(km) Pressure(kPa) Air tempC) Relative humidity(%) Dew pointC)
21 October 2014
8:00 SE 17 gust 26 Light Rain 16 99.8 11 77 8
7:00 SSE 13 gust 26 Light Rain 16 99.8 12 68 7
6:00 SE 14 gust 22 Light Rain 16 100.0 12 73 7
5:00 ESE 9 gust 15 Cloudy 16 100.0 11 83 8
4:00 ESE 8 Mostly Cloudy 16 100.1 11 86 8
3:00 ESE 5 Mostly Cloudy 16 100.2 10 91 9
2:00 ESE 2 Cloudy 16 100.2 10 94 9
1:00 SE 4 Cloudy 16 100.2 10 94 9
0:00 SE 4 Mainly Clear 16 100.3 10 96 9
20 October 2014
23:00 SE 5 Partly Cloudy 16 100.3 10 96 10
22:00 SE 3 Mostly Cloudy 16 100.3 10 96 10
21:00 SSE 2 Mostly Cloudy 16 100.3 10 95 9
20:00 SE 4 Mostly Cloudy 16 100.3 11 94 10
19:00 SE 2 Light Rain 16 100.3 11 95 10
18:00 SSE 4 Cloudy 16 100.3 12 85 10
17:00 S 2 Mostly Cloudy 16 100.4 13 84 10
16:00 SW 6 gust 15 Mainly Sunny 16 100.3 13 80 10
15:00 S 10 gust 17 Cloudy 16 100.3 13 87 11
14:00 SSE 13 gust 21 Light Rain 8 100.2 12 93 11
13:00 SE 8 Cloudy 16 100.1 13 86 11
12:00 ESE 6 Cloudy 16 100.1 12 88 10
11:00 SE 6 Cloudy 16 100.1 12 91 10
10:00 SE 4 Light Rain 16 100.2 11 93 10
9:00 SE 5 Light Rain 15 100.1 11 95 10
8:00 SE 6 Light Rain 16 100.1 11 94 10
 
Map of Pacific - South Coast marine weather areas Tsawwassen Ferry Terminal South Nomad - 46036 Sentry Shoal - 46131 South Brooks - 46132 Halibut Bank - 46146 South Moresby - 46147 South Hecate Strait - 46185 West Sea Otter - 46204 La Perouse Bank - 46206 East Dellwood - 46207 Discovery Island Esquimalt Harbour Kelp Reefs Malahat Race Rocks Lightstation Saturna Island Sheringham Point University of Victoria Victoria Gonzales Victoria Int'l Airport Ballenas Islands Campbell River Airport Comox Airport Entrance Island Fanny Island Nanaimo Airport Port Hardy Airport Sisters Islets Estevan Point Sartine Island Solander Island Tofino Airport Grief Point Powell River Airport Sechelt Cape St.James Bella Bella Airport Bella Coola Airport Cathedral Point Herbert Island Point Atkinson Sand Heads Lightstation Vancouver Harbour Vancouver Int'l Airport West Vancouver Port Alberni Howe Sound - Pam Rocks Squamish Airport